Simultaneous Nadir Overpasses (SNOs) Predictions

Prediction of SNOs between AQUA and NOAA-19 Satellite Orbit:

Table of predicted SNOs for the next 14.0 days since TLE Epoch: 2/18/2023
Index Date (AQUA) Time (AQUA) Lat,Lon (AQUA) SZA (AQUA ) Date (NOAA-19) Time (NOAA-19) Lat,Lon (NOAA-19) SZA (NOAA-19 ) Distance(km) Time Diff (sec)
1 02/20/2023 03:06:42 76.76, 121.64 88.18 02/20/2023 03:06:08 76.78, 121.58 88.21 2.53 34
2 02/20/2023 03:56:08 -76.84, -70.99 91.75 02/20/2023 03:57:02 -76.84, -70.89 91.76 2.68 54
3 02/22/2023 08:39:05 -76.79,-141.54 92.60 02/22/2023 08:38:44 -76.77,-141.55 92.62 2.42 21
4 02/22/2023 09:28:32 76.83, 25.96 87.44 02/22/2023 09:29:45 76.90, 26.25 87.47 10.67 73
5 02/24/2023 14:11:28 76.79, -44.61 86.58 02/24/2023 14:11:28 76.78, -44.62 86.57 1.11 0
6 02/26/2023 18:54:23 76.75,-115.19 85.71 02/26/2023 18:53:10 76.69,-115.34 85.68 7.95 73
7 02/26/2023 19:43:48 -76.78, 52.37 94.28 02/26/2023 19:44:03 -76.78, 52.31 94.27 1.62 15
8 03/01/2023 00:26:42 -76.74, -18.22 95.15 03/01/2023 00:25:44 -76.73, -18.27 95.15 2.28 58
9 03/01/2023 01:16:09 76.79, 149.24 84.90 03/01/2023 01:16:47 76.78, 149.19 84.88 2.37 38
10 03/03/2023 05:59:02 76.77, 78.62 84.03 03/03/2023 05:58:27 76.75, 78.74 84.02 3.46 35



Historial Predications of SNOs between AQUA and NOAA-19
